Location: Del Amo
(33.8464°N, 118.2104°W)
Time: 03:29:57
(UTC+00:00)

Courier 1B - Pass Details

Date: 15 September 2024
Orbit: 962 x 1208 km, 28.3° (Epoch: 08 October)

Event Time Altitude Azimuth Distance (km) Brightness Sun altitude
Rises 02:43:48 0° 271° (W) 4,064 12.8 -9.9°
Reaches altitude 10° 02:46:53 10° 263° (W) 3,120 11.5 -10.5°
Maximum altitude 02:53:48 35° 200° (SSW) 1,830 9.0 -11.9°
Drops below altitude 10° 03:00:44 10° 138° (SE) 3,124 9.7 -13.4°
Enters shadow 03:00:50 10° 138° (SE) 3,155 9.7 -13.4°
